| time (UTC) | temp C | wind direction | speed KPH | gust KPH | rain 1hr cm | rain 24hr cm | rain mn cm | humidity % | barometer mb |
| 20260906065339 | 23 | 321 | 4.8 | 4.8 | 0.00 | 0.00 | 0.00 | 87 | 1012.1 |
| 20260906064835 | 23 | 323 | 4.8 | 4.8 | 0.00 | 0.00 | 0.00 | 87 | 1012.2 |
| 20260906064331 | 23 | 317 | 3.2 | 3.2 | 0.00 | 0.00 | 0.00 | 87 | 1012.1 |
| 20260906063831 | 23 | 309 | 1.6 | 1.6 | 0.00 | 0.00 | 0.00 | 87 | 1012.0 |
| 20260906063326 | 23 | 313 | 1.6 | 1.6 | 0.00 | 0.00 | 0.00 | 87 | 1012.0 |
| 20260906062821 | 23 | 319 | 3.2 | 3.2 | 0.00 | 0.00 | 0.00 | 86 | 1012.1 |
| 20260906062320 | 22 | 333 | 1.6 | 3.2 | 0.00 | 0.00 | 0.00 | 88 | 1012.1 |
| 20260906061816 | 22 | 21 | 1.6 | 1.6 | 0.00 | 0.00 | 0.00 | 88 | 1012.1 |
| 20260906061312 | 22 | 21 | 0.0 | 1.6 | 0.00 | 0.00 | 0.00 | 88 | 1012.5 |
| 20260906060807 | 22 | 21 | 0.0 | 0.0 | 0.00 | 0.00 | 0.00 | 87 | 1012.2 |
| 20260906060305 | 23 | 20 | 0.0 | 1.6 | 0.00 | 0.00 | 0.00 | 86 | 1012.2 |
| 20260906055800 | 22 | 43 | 0.0 | 1.6 | 0.00 | 0.00 | 0.00 | 87 | 1011.9 |
| 20260906055255 | 22 | 52 | 0.0 | 1.6 | 0.00 | 0.00 | 0.00 | 86 | 1012.0 |
| 20260906054750 | 22 | 105 | 1.6 | 1.6 | 0.00 | 0.00 | 0.00 | 86 | 1011.7 |
| 20260906054246 | 22 | 106 | 1.6 | 1.6 | 0.00 | 0.00 | 0.00 | 85 | 1011.6 |
| 20260906053743 | 24 | 65 | 1.6 | 1.6 | 0.00 | 0.00 | 0.00 | 82 | 1011.3 |
| 20260906053238 | 24 | 321 | 1.6 | 1.6 | 0.00 | 0.00 | 0.00 | 80 | 1011.5 |
| 20260906052733 | 22 | 358 | 0.0 | 1.6 | 0.00 | 0.00 | 0.00 | 86 | 1011.6 |
| 20260906052229 | 22 | 143 | 1.6 | 1.6 | 0.00 | 0.00 | 0.00 | 89 | 1011.5 |
| 20260906051726 | 22 | 170 | 3.2 | 3.2 | 0.00 | 0.00 | 0.00 | 89 | 1011.9 |
| 20260906051225 | 22 | 148 | 3.2 | 3.2 | 0.00 | 0.00 | 0.00 | 89 | 1011.5 |
| 20260906050721 | 22 | 143 | 3.2 | 3.2 | 0.00 | 0.00 | 0.00 | 88 | 1011.7 |
| 20260906050216 | 22 | 144 | 4.8 | 4.8 | 0.00 | 0.00 | 0.00 | 87 | 1011.9 |
| 20260906045714 | 23 | 97 | 1.6 | 1.6 | 0.00 | 0.00 | 0.00 | 86 | 1012.1 |
| 20260906045209 | 24 | 87 | 1.6 | 1.6 | 0.00 | 0.00 | 0.00 | 82 | 1012.1 |
| 20260906044705 | 24 | 340 | 0.0 | 0.0 | 0.00 | 0.00 | 0.00 | 78 | 1012.0 |
| 20260906044200 | 23 | 52 | 0.0 | 0.0 | 0.00 | 0.00 | 0.00 | 83 | 1011.9 |
| 20260906043656 | 23 | 99 | 3.2 | 3.2 | 0.00 | 0.00 | 0.00 | 83 | 1012.3 |
| 20260906043152 | 22 | 135 | 6.4 | 8.0 | 0.00 | 0.00 | 0.00 | 86 | 1012.1 |
| 20260906042651 | 22 | 150 | 3.2 | 3.2 | 0.00 | 0.00 | 0.00 | 88 | 1012.0 |
| 20260906042145 | 23 | 99 | 1.6 | 1.6 | 0.00 | 0.00 | 0.00 | 87 | 1012.1 |
| 20260906041641 | 23 | 121 | 1.6 | 1.6 | 0.00 | 0.00 | 0.00 | 85 | 1012.4 |
| 20260906041136 | 23 | 130 | 4.8 | 4.8 | 0.00 | 0.00 | 0.00 | 84 | 1012.3 |
| 20260906040632 | 23 | 121 | 4.8 | 4.8 | 0.00 | 0.00 | 0.00 | 84 | 1012.2 |
| 20260906040127 | 24 | 150 | 3.2 | 3.2 | 0.00 | 0.18 | 0.18 | 82 | 1012.1 |
| 20260906035622 | 23 | 111 | 1.6 | 1.6 | 0.00 | 0.18 | 0.18 | 78 | 1012.3 |
| 20260906035118 | 23 | 131 | 8.0 | 8.0 | 0.00 | 0.18 | 0.18 | 82 | 1012.3 |
| 20260906034618 | 23 | 148 | 9.7 | 9.7 | 0.00 | 0.18 | 0.18 | 84 | 1012.2 |
| 20260906034112 | 23 | 141 | 9.7 | 11.3 | 0.00 | 0.18 | 0.18 | 83 | 1012.4 |
| 20260906033608 | 23 | 137 | 4.8 | 4.8 | 0.00 | 0.18 | 0.18 | 83 | 1012.4 |
| 20260906033103 | 24 | 81 | 1.6 | 1.6 | 0.00 | 0.18 | 0.18 | 82 | 1012.5 |
| 20260906032600 | 23 | 118 | 4.8 | 4.8 | 0.00 | 0.18 | 0.18 | 79 | 1012.3 |
| 20260906032100 | 23 | 130 | 6.4 | 8.0 | 0.00 | 0.18 | 0.18 | 83 | 1012.4 |
| 20260906031555 | 24 | 141 | 6.4 | 8.0 | 0.00 | 0.18 | 0.18 | 80 | 1012.2 |
| 20260906031051 | 24 | 153 | 8.0 | 8.0 | 0.00 | 0.18 | 0.18 | 80 | 1012.1 |
| 20260906030549 | 24 | 145 | 9.7 | 9.7 | 0.00 | 0.18 | 0.18 | 82 | 1012.1 |
| 20260906030044 | 23 | 98 | 9.7 | 11.3 | 0.00 | 0.18 | 0.18 | 82 | 1012.2 |
| 20260906025544 | 23 | 147 | 9.7 | 9.7 | 0.00 | 0.18 | 0.18 | 82 | 1012.2 |
| 20260906025042 | 23 | 145 | 8.0 | 9.7 | 0.00 | 0.18 | 0.18 | 83 | 1012.2 |
| 20260906024538 | 23 | 128 | 8.0 | 9.7 | 0.00 | 0.18 | 0.18 | 84 | 1012.1 |
| 20260906024037 | 23 | 146 | 9.7 | 9.7 | 0.00 | 0.18 | 0.18 | 84 | 1012.1 |
| 20260906023534 | 23 | 139 | 8.0 | 9.7 | 0.00 | 0.18 | 0.18 | 82 | 1012.0 |
| 20260906023028 | 23 | 145 | 8.0 | 9.7 | 0.00 | 0.18 | 0.18 | 82 | 1012.1 |
| 20260906022524 | 23 | 144 | 9.7 | 11.3 | 0.00 | 0.18 | 0.18 | 83 | 1011.7 |
| 20260906022019 | 23 | 141 | 9.7 | 11.3 | 0.00 | 0.18 | 0.18 | 85 | 1011.6 |
| 20260906021515 | 23 | 137 | 11.3 | 11.3 | 0.00 | 0.18 | 0.18 | 88 | 1011.4 |
| 20260906021009 | 23 | 139 | 9.7 | 9.7 | 0.00 | 0.18 | 0.18 | 88 | 1011.9 |
| 20260906020508 | 23 | 142 | 8.0 | 9.7 | 0.00 | 0.18 | 0.18 | 88 | 1011.9 |
| 20260906020008 | 22 | 141 | 8.0 | 9.7 | 0.00 | 0.18 | 0.18 | 88 | 1012.0 |
| 20260906015507 | 22 | 143 | 8.0 | 8.0 | 0.00 | 0.18 | 0.18 | 90 | 1011.6 |
| 20260906015007 | 22 | 155 | 6.4 | 8.0 | 0.00 | 0.18 | 0.18 | 90 | 1011.9 |
| 20260906014501 | 23 | 135 | 8.0 | 8.0 | 0.00 | 0.18 | 0.18 | 90 | 1012.0 |
| 20260906013957 | 23 | 128 | 6.4 | 8.0 | 0.00 | 0.18 | 0.18 | 89 | 1011.9 |
| 20260906013453 | 23 | 127 | 4.8 | 4.8 | 0.00 | 0.18 | 0.18 | 87 | 1012.0 |
| 20260906012949 | 23 | 114 | 4.8 | 4.8 | 0.00 | 0.18 | 0.18 | 86 | 1011.7 |
| 20260906012449 | 23 | 117 | 3.2 | 3.2 | 0.00 | 0.18 | 0.18 | 86 | 1011.6 |
| 20260906011948 | 23 | 129 | 4.8 | 4.8 | 0.00 | 0.18 | 0.18 | 89 | 1011.6 |
| 20260906011444 | 23 | 150 | 4.8 | 4.8 | 0.00 | 0.18 | 0.18 | 87 | 1011.2 |
| 20260906010939 | 23 | 137 | 4.8 | 4.8 | 0.00 | 0.18 | 0.18 | 86 | 1011.2 |
| 20260906010434 | 24 | 152 | 4.8 | 4.8 | 0.00 | 0.18 | 0.18 | 86 | 1011.3 |
| 20260906005930 | 24 | 67 | 1.6 | 3.2 | 0.00 | 0.18 | 0.18 | 85 | 1011.4 |
| 20260906005430 | 24 | 120 | 3.2 | 3.2 | 0.00 | 0.18 | 0.18 | 84 | 1011.1 |
| 20260906004928 | 25 | 136 | 3.2 | 3.2 | 0.00 | 0.18 | 0.18 | 82 | 1011.2 |
| 20260906004422 | 25 | 56 | 0.0 | 0.0 | 0.00 | 0.18 | 0.18 | 79 | 1011.3 |
| 20260906003919 | 25 | 58 | 0.0 | 0.0 | 0.00 | 0.18 | 0.18 | 79 | 1011.1 |
| 20260906003414 | 25 | 357 | 0.0 | 1.6 | 0.00 | 0.18 | 0.18 | 77 | 1011.0 |
| 20260906002909 | 25 | 144 | 1.6 | 1.6 | 0.00 | 0.18 | 0.18 | 82 | 1010.7 |
| 20260906002409 | 25 | 137 | 4.8 | 4.8 | 0.00 | 0.18 | 0.18 | 80 | 1010.9 |
| 20260906001904 | 25 | 152 | 4.8 | 4.8 | 0.00 | 0.18 | 0.18 | 79 | 1011.1 |
| 20260906001359 | 25 | 123 | 3.2 | 3.2 | 0.00 | 0.18 | 0.18 | 80 | 1011.2 |
| 20260906000854 | 25 | 142 | 3.2 | 3.2 | 0.00 | 0.18 | 0.18 | 79 | 1011.1 |
| 20260906000356 | 26 | 141 | 4.8 | 8.0 | 0.00 | 0.18 | 0.18 | 80 | 1011.0 |
| 20260905235849 | 26 | 138 | 8.0 | 9.7 | 0.00 | 0.18 | 0.18 | 80 | 1011.2 |
| 20260905235343 | 26 | 146 | 6.4 | 8.0 | 0.00 | 0.18 | 0.18 | 78 | 1011.3 |
| 20260905234838 | 26 | 137 | 8.0 | 8.0 | 0.00 | 0.18 | 0.18 | 78 | 1011.4 |
| 20260905234334 | 26 | 140 | 6.4 | 8.0 | 0.00 | 0.18 | 0.18 | 78 | 1011.4 |
| 20260905233829 | 26 | 131 | 8.0 | 8.0 | 0.00 | 0.18 | 0.18 | 79 | 1011.3 |
| 20260905233324 | 26 | 133 | 6.4 | 8.0 | 0.00 | 0.18 | 0.18 | 79 | 1011.1 |
| 20260905232823 | 26 | 152 | 8.0 | 9.7 | 0.00 | 0.18 | 0.18 | 81 | 1011.2 |
| 20260905232319 | 26 | 157 | 6.4 | 8.0 | 0.00 | 0.18 | 0.18 | 80 | 1010.9 |
| 20260905231815 | 26 | 56 | 8.0 | 9.7 | 0.00 | 0.18 | 0.18 | 82 | 1011.2 |
| 20260905231310 | 26 | 147 | 8.0 | 9.7 | 0.00 | 0.18 | 0.18 | 83 | 1010.8 |
| 20260905230806 | 26 | 178 | 6.4 | 8.0 | 0.00 | 0.18 | 0.18 | 83 | 1010.9 |
| 20260905230304 | 26 | 127 | 6.4 | 8.0 | 0.00 | 0.18 | 0.18 | 84 | 1011.0 |
| 20260905225803 | 26 | 130 | 6.4 | 8.0 | 0.00 | 0.18 | 0.18 | 83 | 1010.9 |
| 20260905225258 | 26 | 139 | 6.4 | 8.0 | 0.00 | 0.18 | 0.18 | 84 | 1011.0 |
| 20260905224758 | 27 | 148 | 6.4 | 8.0 | 0.00 | 0.18 | 0.18 | 82 | 1011.0 |
| 20260905224254 | 27 | 132 | 8.0 | 9.7 | 0.00 | 0.18 | 0.18 | 81 | 1010.9 |
| 20260905223749 | 27 | 147 | 8.0 | 9.7 | 0.00 | 0.18 | 0.18 | 81 | 1010.8 |
| 20260905223246 | 28 | 156 | 6.4 | 8.0 | 0.00 | 0.18 | 0.18 | 77 | 1010.9 |
| 20260905222741 | 28 | 127 | 6.4 | 8.0 | 0.00 | 0.18 | 0.18 | 78 | 1010.7 |
| 20260905222240 | 28 | 158 | 6.4 | 8.0 | 0.00 | 0.18 | 0.18 | 79 | 1011.0 |
| 20260905221736 | 28 | 154 | 8.0 | 9.7 | 0.00 | 0.18 | 0.18 | 78 | 1011.1 |
| 20260905221233 | 28 | 142 | 6.4 | 9.7 | 0.00 | 0.18 | 0.18 | 78 | 1011.0 |
| 20260905220729 | 28 | 169 | 6.4 | 8.0 | 0.00 | 0.18 | 0.18 | 77 | 1011.0 |
| 20260905220225 | 28 | 94 | 1.6 | 3.2 | 0.00 | 0.18 | 0.18 | 81 | 1011.5 |
| 20260905215724 | 28 | 102 | 4.8 | 4.8 | 0.00 | 0.18 | 0.18 | 77 | 1011.3 |
| 20260905215220 | 27 | 97 | 1.6 | 1.6 | 0.00 | 0.18 | 0.18 | 79 | 1011.6 |
| 20260905214715 | 27 | 102 | 4.8 | 4.8 | 0.00 | 0.18 | 0.18 | 80 | 1011.4 |
| 20260905214211 | 27 | 164 | 8.0 | 9.7 | 0.00 | 0.18 | 0.18 | 80 | 1011.4 |
| 20260905213706 | 28 | 9 | 4.8 | 4.8 | 0.00 | 0.18 | 0.18 | 81 | 1011.6 |
| 20260905213202 | 27 | 157 | 6.4 | 8.0 | 0.00 | 0.18 | 0.18 | 83 | 1011.7 |
| 20260905212657 | 26 | 166 | 4.8 | 4.8 | 0.00 | 0.18 | 0.18 | 87 | 1011.4 |
| 20260905212156 | 27 | 124 | 1.6 | 3.2 | 0.00 | 0.18 | 0.18 | 90 | 1011.6 |
| 20260905211650 | 27 | 80 | 1.6 | 1.6 | 0.00 | 0.18 | 0.18 | 87 | 1011.5 |
| 20260905211146 | 25 | 29 | 1.6 | 3.2 | 0.00 | 0.18 | 0.18 | 88 | 1011.5 |
| 20260905210643 | 26 | 76 | 3.2 | 3.2 | 0.00 | 0.18 | 0.18 | 95 | 1011.5 |
| 20260905210143 | 26 | 93 | 1.6 | 3.2 | 0.00 | 0.18 | 0.18 | 95 | 1011.5 |
| 20260905205642 | 26 | 320 | 1.6 | 1.6 | 0.00 | 0.18 | 0.18 | 95 | 1011.3 |
| 20260905205142 | 26 | 104 | 1.6 | 1.6 | 0.00 | 0.18 | 0.18 | 95 | 1011.0 |
| 20260905204641 | 26 | 109 | 3.2 | 3.2 | 0.00 | 0.18 | 0.18 | 95 | 1011.2 |
| 20260905204136 | 26 | 117 | 3.2 | 3.2 | 0.00 | 0.18 | 0.18 | 94 | 1011.3 |
| 20260905203631 | 26 | 119 | 3.2 | 3.2 | 0.00 | 0.18 | 0.18 | 94 | 1011.3 |
| 20260905203126 | 27 | 125 | 1.6 | 1.6 | 0.00 | 0.18 | 0.18 | 95 | 1011.4 |
| 20260905202622 | 26 | 77 | 1.6 | 1.6 | 0.00 | 0.18 | 0.18 | 94 | 1011.4 |
| 20260905202117 | 26 | 53 | 1.6 | 1.6 | 0.00 | 0.18 | 0.18 | 95 | 1011.9 |
| 20260905201613 | 27 | 37 | 0.0 | 1.6 | 0.00 | 0.18 | 0.18 | 95 | 1011.7 |
| 20260905201112 | 27 | 124 | 1.6 | 1.6 | 0.00 | 0.18 | 0.18 | 95 | 1011.5 |
| 20260905200608 | 26 | 359 | 1.6 | 1.6 | 0.00 | 0.18 | 0.18 | 95 | 1012.0 |
| 20260905195556 | 25 | 119 | 1.6 | 3.2 | 0.18 | 0.18 | 0.18 | 96 | 1012.3 |
| 20260905195051 | 25 | 24 | 1.6 | 3.2 | 0.61 | 0.18 | 0.18 | 94 | 1012.4 |
| 20260905194551 | 25 | 45 | 1.6 | 1.6 | 0.79 | 0.18 | 0.18 | 91 | 1012.3 |
| 20260905194050 | 25 | 334 | 1.6 | 1.6 | 0.61 | 0.10 | 0.10 | 85 | 1012.2 |
| 20260905193545 | 26 | 324 | 4.8 | 4.8 | 0.30 | 0.05 | 0.05 | 82 | 1012.1 |
| 20260905193041 | 27 | 325 | 3.2 | 3.2 | 0.00 | 0.00 | 0.00 | 81 | 1012.3 |
| 20260905192536 | 30 | 316 | 3.2 | 4.8 | 0.00 | 0.00 | 0.00 | 71 | 1012.4 |
| 20260905192032 | 30 | 346 | 1.6 | 1.6 | 0.00 | 0.00 | 0.00 | 71 | 1012.4 |
| 20260905191530 | 31 | 353 | 1.6 | 4.8 | 0.00 | 0.00 | 0.00 | 68 | 1012.4 |
| 20260905191030 | 32 | 355 | 11.3 | 12.9 | 0.00 | 0.00 | 0.00 | 61 | 1012.3 |
| 20260905190528 | 33 | 345 | 6.4 | 9.7 | 0.00 | 0.00 | 0.00 | 57 | 1012.2 |
| 20260905190028 | 34 | 334 | 4.8 | 4.8 | 0.00 | 0.00 | 0.00 | 55 | 1012.1 |
| 20260905185527 | 34 | 328 | 3.2 | 3.2 | 0.00 | 0.00 | 0.00 | 53 | 1012.1 |
| 20260905185026 | 33 | 3 | 1.6 | 1.6 | 0.00 | 0.00 | 0.00 | 54 | 1012.3 |
| 20260905184521 | 34 | 304 | 3.2 | 3.2 | 0.00 | 0.00 | 0.00 | 53 | 1012.5 |
| 20260905184019 | 33 | 297 | 9.7 | 12.9 | 0.00 | 0.00 | 0.00 | 54 | 1012.4 |
| 20260905183514 | 32 | 312 | 1.6 | 3.2 | 0.00 | 0.00 | 0.00 | 57 | 1012.4 |
| 20260905183009 | 32 | 320 | 1.6 | 3.2 | 0.00 | 0.00 | 0.00 | 55 | 1012.4 |
| 20260905182509 | 33 | 8 | 1.6 | 1.6 | 0.00 | 0.00 | 0.00 | 55 | 1012.6 |
| 20260905182003 | 33 | 318 | 3.2 | 3.2 | 0.00 | 0.00 | 0.00 | 54 | 1012.7 |
| 20260905181458 | 33 | 14 | 1.6 | 1.6 | 0.00 | 0.00 | 0.00 | 52 | 1012.5 |
| 20260905180957 | 33 | 350 | 3.2 | 3.2 | 0.00 | 0.00 | 0.00 | 56 | 1012.7 |
| 20260905180452 | 32 | 325 | 8.0 | 9.7 | 0.00 | 0.00 | 0.00 | 57 | 1012.8 |
| 20260905175947 | 32 | 323 | 8.0 | 11.3 | 0.00 | 0.00 | 0.00 | 57 | 1012.9 |
| 20260905175447 | 33 | 331 | 4.8 | 4.8 | 0.00 | 0.00 | 0.00 | 56 | 1012.6 |
| 20260905174943 | 32 | 308 | 4.8 | 4.8 | 0.00 | 0.00 | 0.00 | 54 | 1012.7 |
| 20260905174437 | 32 | 296 | 8.0 | 11.3 | 0.00 | 0.00 | 0.00 | 53 | 1013.0 |
| 20260905173933 | 33 | 317 | 8.0 | 11.3 | 0.00 | 0.00 | 0.00 | 52 | 1012.9 |
| 20260905173430 | 33 | 291 | 4.8 | 8.0 | 0.00 | 0.00 | 0.00 | 52 | 1013.2 |
| 20260905172925 | 32 | 342 | 3.2 | 3.2 | 0.00 | 0.00 | 0.00 | 52 | 1013.2 |
| 20260905172422 | 32 | 311 | 1.6 | 3.2 | 0.00 | 0.00 | 0.00 | 52 | 1013.0 |
| 20260905171919 | 32 | 322 | 4.8 | 4.8 | 0.00 | 0.00 | 0.00 | 58 | 1013.3 |
| 20260905171415 | 32 | 320 | 4.8 | 8.0 | 0.00 | 0.00 | 0.00 | 61 | 1013.2 |
| 20260905170911 | 32 | 299 | 3.2 | 3.2 | 0.00 | 0.00 | 0.00 | 58 | 1013.3 |
| 20260905170407 | 33 | 239 | 1.6 | 1.6 | 0.00 | 0.00 | 0.00 | 59 | 1013.3 |
| 20260905165906 | 33 | 324 | 3.2 | 3.2 | 0.00 | 0.00 | 0.00 | 56 | 1013.3 |
| 20260905165401 | 33 | 351 | 1.6 | 1.6 | 0.00 | 0.00 | 0.00 | 57 | 1013.2 |
| 20260905164856 | 33 | 322 | 1.6 | 1.6 | 0.00 | 0.00 | 0.00 | 60 | 1013.6 |
| 20260905164351 | 32 | 17 | 1.6 | 1.6 | 0.00 | 0.00 | 0.00 | 61 | 1013.9 |
| 20260905163846 | 31 | 6 | 1.6 | 1.6 | 0.00 | 0.00 | 0.00 | 63 | 1013.6 |
| 20260905163343 | 31 | 322 | 3.2 | 4.8 | 0.00 | 0.00 | 0.00 | 64 | 1013.6 |
| 20260905162839 | 31 | 317 | 1.6 | 3.2 | 0.00 | 0.00 | 0.00 | 65 | 1013.9 |
| 20260905162338 | 31 | 312 | 1.6 | 1.6 | 0.00 | 0.00 | 0.00 | 65 | 1013.8 |
| 20260905161833 | 31 | 351 | 3.2 | 3.2 | 0.00 | 0.00 | 0.00 | 66 | 1013.8 |
| 20260905161332 | 31 | 312 | 1.6 | 3.2 | 0.00 | 0.00 | 0.00 | 66 | 1013.9 |
| 20260905160830 | 31 | 325 | 1.6 | 1.6 | 0.00 | 0.00 | 0.00 | 66 | 1014.0 |
| 20260905160325 | 30 | 329 | 4.8 | 8.0 | 0.00 | 0.00 | 0.00 | 67 | 1014.0 |
| 20260905155819 | 30 | 323 | 3.2 | 3.2 | 0.00 | 0.00 | 0.00 | 67 | 1014.2 |
| 20260905155319 | 30 | 330 | 3.2 | 3.2 | 0.00 | 0.00 | 0.00 | 68 | 1014.0 |
| 20260905154813 | 30 | 308 | 3.2 | 3.2 | 0.00 | 0.00 | 0.00 | 68 | 1013.9 |
| 20260905154309 | 30 | 343 | 1.6 | 1.6 | 0.00 | 0.00 | 0.00 | 71 | 1014.1 |
| 20260905153804 | 30 | 329 | 1.6 | 1.6 | 0.00 | 0.00 | 0.00 | 72 | 1014.2 |
| 20260905153300 | 30 | 333 | 1.6 | 1.6 | 0.00 | 0.00 | 0.00 | 72 | 1014.0 |
| 20260905152754 | 30 | 357 | 1.6 | 1.6 | 0.00 | 0.00 | 0.00 | 76 | 1014.1 |
| 20260905152254 | 30 | 320 | 1.6 | 1.6 | 0.00 | 0.00 | 0.00 | 74 | 1014.0 |
| 20260905151754 | 29 | 313 | 1.6 | 3.2 | 0.00 | 0.00 | 0.00 | 74 | 1014.3 |
| 20260905151250 | 29 | 342 | 1.6 | 1.6 | 0.00 | 0.00 | 0.00 | 74 | 1014.3 |
| 20260905150744 | 29 | 328 | 3.2 | 3.2 | 0.00 | 0.00 | 0.00 | 73 | 1014.1 |
| 20260905150244 | 30 | 319 | 1.6 | 1.6 | 0.00 | 0.00 | 0.00 | 72 | 1013.9 |
| 20260905145741 | 30 | 2 | 1.6 | 1.6 | 0.00 | 0.00 | 0.00 | 72 | 1014.1 |
| 20260905145236 | 29 | 338 | 1.6 | 3.2 | 0.00 | 0.00 | 0.00 | 73 | 1014.5 |
| 20260905144735 | 28 | 348 | 1.6 | 1.6 | 0.00 | 0.00 | 0.00 | 74 | 1014.4 |
| 20260905144231 | 28 | 343 | 4.8 | 4.8 | 0.00 | 0.00 | 0.00 | 74 | 1014.3 |
| 20260905143730 | 28 | 347 | 1.6 | 1.6 | 0.00 | 0.00 | 0.00 | 73 | 1014.3 |
| 20260905143229 | 28 | 344 | 0.0 | 0.0 | 0.00 | 0.00 | 0.00 | 77 | 1014.3 |
| 20260905142727 | 28 | 325 | 1.6 | 1.6 | 0.00 | 0.00 | 0.00 | 78 | 1014.1 |
| 20260905142222 | 28 | 347 | 1.6 | 1.6 | 0.00 | 0.00 | 0.00 | 75 | 1014.3 |
| 20260905141718 | 28 | 339 | 1.6 | 1.6 | 0.00 | 0.00 | 0.00 | 73 | 1014.3 |
| 20260905141214 | 28 | 339 | 1.6 | 1.6 | 0.00 | 0.00 | 0.00 | 73 | 1014.3 |
| 20260905140709 | 28 | 339 | 1.6 | 1.6 | 0.00 | 0.00 | 0.00 | 76 | 1014.2 |
| 20260905140209 | 28 | 338 | 1.6 | 1.6 | 0.00 | 0.00 | 0.00 | 73 | 1014.0 |
| 20260905135658 | 28 | 338 | 1.6 | 1.6 | 0.00 | 0.00 | 0.00 | 71 | 1014.3 |
| 20260905135154 | 28 | 338 | 1.6 | 1.6 | 0.00 | 0.00 | 0.00 | 74 | 1014.2 |
| 20260905134653 | 30 | 108 | 1.6 | 1.6 | 0.00 | 0.00 | 0.00 | 69 | 1014.3 |
| 20260905134153 | 29 | 108 | 0.0 | 0.0 | 0.00 | 0.00 | 0.00 | 74 | 1014.3 |
| 20260905133648 | 28 | 108 | 0.0 | 0.0 | 0.00 | 0.00 | 0.00 | 76 | 1014.3 |
| 20260905133148 | 28 | 108 | 0.0 | 0.0 | 0.00 | 0.00 | 0.00 | 81 | 1014.5 |
| 20260905132647 | 27 | 108 | 0.0 | 0.0 | 0.00 | 0.00 | 0.00 | 81 | 1014.5 |
| 20260905132142 | 27 | 107 | 0.0 | 0.0 | 0.00 | 0.00 | 0.00 | 84 | 1014.4 |
| 20260905131638 | 26 | 108 | 0.0 | 0.0 | 0.00 | 0.00 | 0.00 | 86 | 1014.4 |
| 20260905131132 | 25 | 108 | 1.6 | 1.6 | 0.00 | 0.00 | 0.00 | 90 | 1014.3 |
| 20260905130626 | 25 | 108 | 0.0 | 1.6 | 0.00 | 0.00 | 0.00 | 92 | 1014.7 |
| 20260905130121 | 25 | 108 | 0.0 | 0.0 | 0.00 | 0.00 | 0.00 | 92 | 1014.7 |
| 20260905125615 | 24 | 108 | 0.0 | 0.0 | 0.00 | 0.00 | 0.00 | 93 | 1014.4 |
| 20260905125111 | 24 | 108 | 0.0 | 0.0 | 0.00 | 0.00 | 0.00 | 93 | 1014.5 |
| 20260905124607 | 23 | 108 | 0.0 | 0.0 | 0.00 | 0.00 | 0.00 | 94 | 1014.5 |
| 20260905124103 | 23 | 108 | 0.0 | 1.6 | 0.00 | 0.00 | 0.00 | 93 | 1014.4 |
| 20260905123558 | 23 | 108 | 1.6 | 1.6 | 0.00 | 0.00 | 0.00 | 94 | 1014.6 |
| 20260905123055 | 23 | 108 | 0.0 | 1.6 | 0.00 | 0.00 | 0.00 | 94 | 1014.4 |
| 20260905122555 | 23 | 108 | 1.6 | 1.6 | 0.00 | 0.00 | 0.00 | 94 | 1014.4 |
| 20260905122055 | 23 | 108 | 0.0 | 1.6 | 0.00 | 0.00 | 0.00 | 94 | 1014.4 |
| 20260905121550 | 22 | 108 | 1.6 | 1.6 | 0.00 | 0.00 | 0.00 | 94 | 1014.5 |
| 20260905121045 | 22 | 108 | 1.6 | 1.6 | 0.00 | 0.00 | 0.00 | 93 | 1014.4 |
| 20260905120544 | 22 | 108 | 1.6 | 1.6 | 0.00 | 0.00 | 0.00 | 93 | 1014.3 |
| 20260905120040 | 22 | 108 | 1.6 | 1.6 | 0.00 | 0.00 | 0.00 | 93 | 1014.2 |
| 20260905115538 | 22 | 108 | 1.6 | 1.6 | 0.00 | 0.00 | 0.00 | 93 | 1014.1 |
| 20260905115033 | 22 | 108 | 1.6 | 1.6 | 0.00 | 0.00 | 0.00 | 93 | 1014.0 |
| 20260905114532 | 22 | 109 | 3.2 | 3.2 | 0.00 | 0.00 | 0.00 | 93 | 1013.6 |
| 20260905114032 | 22 | 109 | 1.6 | 3.2 | 0.00 | 0.00 | 0.00 | 92 | 1014.0 |
| 20260905113527 | 22 | 108 | 1.6 | 1.6 | 0.00 | 0.00 | 0.00 | 92 | 1014.0 |
| 20260905113022 | 22 | 109 | 1.6 | 3.2 | 0.00 | 0.00 | 0.00 | 92 | 1013.6 |
| 20260905112518 | 22 | 109 | 3.2 | 3.2 | 0.00 | 0.00 | 0.00 | 91 | 1013.9 |
| 20260905112013 | 22 | 109 | 3.2 | 3.2 | 0.00 | 0.00 | 0.00 | 91 | 1013.6 |
| 20260905111513 | 22 | 108 | 1.6 | 3.2 | 0.00 | 0.00 | 0.00 | 91 | 1013.3 |
| 20260905111007 | 22 | 109 | 3.2 | 3.2 | 0.00 | 0.00 | 0.00 | 90 | 1013.3 |
| 20260905110506 | 22 | 108 | 1.6 | 1.6 | 0.00 | 0.00 | 0.00 | 90 | 1013.4 |
| 20260905110001 | 23 | 108 | 1.6 | 1.6 | 0.00 | 0.00 | 0.00 | 90 | 1013.3 |
| 20260905105455 | 23 | 108 | 1.6 | 3.2 | 0.00 | 0.00 | 0.00 | 89 | 1013.1 |
| 20260905104954 | 23 | 108 | 1.6 | 3.2 | 0.00 | 0.00 | 0.00 | 89 | 1013.3 |
| 20260905104451 | 23 | 108 | 1.6 | 3.2 | 0.00 | 0.00 | 0.00 | 90 | 1013.2 |
| 20260905103945 | 23 | 108 | 1.6 | 1.6 | 0.00 | 0.00 | 0.00 | 89 | 1013.2 |
| 20260905103440 | 23 | 108 | 3.2 | 3.2 | 0.00 | 0.00 | 0.00 | 89 | 1013.3 |
| 20260905102937 | 23 | 109 | 3.2 | 3.2 | 0.00 | 0.00 | 0.00 | 89 | 1013.1 |
| 20260905102432 | 23 | 108 | 1.6 | 3.2 | 0.00 | 0.00 | 0.00 | 89 | 1013.2 |
| 20260905101927 | 23 | 109 | 3.2 | 3.2 | 0.00 | 0.00 | 0.00 | 89 | 1013.2 |
| 20260905101426 | 23 | 109 | 3.2 | 3.2 | 0.00 | 0.00 | 0.00 | 89 | 1013.5 |
| 20260905100921 | 23 | 108 | 1.6 | 3.2 | 0.00 | 0.00 | 0.00 | 88 | 1013.1 |
| 20260905100416 | 23 | 108 | 3.2 | 3.2 | 0.00 | 0.00 | 0.00 | 89 | 1013.3 |
| 20260905095916 | 23 | 108 | 3.2 | 3.2 | 0.00 | 0.00 | 0.00 | 89 | 1013.1 |
| 20260905095411 | 23 | 109 | 3.2 | 3.2 | 0.00 | 0.00 | 0.00 | 88 | 1013.0 |
| 20260905094911 | 23 | 109 | 3.2 | 3.2 | 0.00 | 0.00 | 0.00 | 88 | 1013.1 |
| 20260905094407 | 23 | 109 | 3.2 | 3.2 | 0.00 | 0.00 | 0.00 | 88 | 1013.0 |
| 20260905093905 | 23 | 108 | 3.2 | 3.2 | 0.00 | 0.00 | 0.00 | 88 | 1013.0 |
| 20260905093401 | 23 | 109 | 3.2 | 3.2 | 0.00 | 0.00 | 0.00 | 89 | 1013.0 |
| 20260905092856 | 23 | 108 | 1.6 | 1.6 | 0.00 | 0.00 | 0.00 | 89 | 1013.0 |
| 20260905092351 | 23 | 108 | 3.2 | 3.2 | 0.00 | 0.00 | 0.00 | 89 | 1013.0 |
| 20260905091846 | 23 | 109 | 3.2 | 3.2 | 0.00 | 0.00 | 0.00 | 89 | 1013.1 |
| 20260905091346 | 23 | 109 | 3.2 | 3.2 | 0.00 | 0.00 | 0.00 | 90 | 1013.1 |
| 20260905090845 | 23 | 109 | 3.2 | 3.2 | 0.00 | 0.00 | 0.00 | 90 | 1013.2 |
| 20260905090341 | 23 | 108 | 3.2 | 3.2 | 0.00 | 0.00 | 0.00 | 90 | 1012.9 |
| 20260905085840 | 23 | 109 | 3.2 | 3.2 | 0.00 | 0.00 | 0.00 | 90 | 1012.8 |
| 20260905085340 | 23 | 108 | 1.6 | 3.2 | 0.00 | 0.00 | 0.00 | 90 | 1013.0 |
| 20260905084836 | 23 | 108 | 3.2 | 3.2 | 0.00 | 0.00 | 0.00 | 89 | 1013.0 |
| 20260905084334 | 23 | 108 | 3.2 | 3.2 | 0.00 | 0.00 | 0.00 | 89 | 1013.0 |
| 20260905083829 | 23 | 108 | 3.2 | 3.2 | 0.00 | 0.00 | 0.00 | 89 | 1012.7 |
| 20260905083326 | 23 | 108 | 3.2 | 3.2 | 0.00 | 0.00 | 0.00 | 89 | 1012.9 |
| 20260905082820 | 23 | 108 | 3.2 | 3.2 | 0.00 | 0.00 | 0.00 | 89 | 1012.9 |
| 20260905082317 | 23 | 107 | 3.2 | 3.2 | 0.00 | 0.00 | 0.00 | 89 | 1013.0 |
| 20260905081812 | 23 | 107 | 3.2 | 3.2 | 0.00 | 0.00 | 0.00 | 89 | 1012.9 |
| 20260905081307 | 23 | 108 | 3.2 | 3.2 | 0.00 | 0.00 | 0.00 | 89 | 1013.1 |
| 20260905080805 | 23 | 107 | 3.2 | 3.2 | 0.00 | 0.00 | 0.00 | 88 | 1012.8 |
| 20260905080300 | 23 | 107 | 3.2 | 3.2 | 0.00 | 0.00 | 0.00 | 88 | 1012.8 |
| 20260905075758 | 23 | 107 | 3.2 | 3.2 | 0.00 | 0.00 | 0.00 | 88 | 1012.8 |
| 20260905075253 | 23 | 107 | 1.6 | 3.2 | 0.00 | 0.00 | 0.00 | 88 | 1012.7 |
| 20260905074752 | 23 | 108 | 3.2 | 3.2 | 0.00 | 0.00 | 0.00 | 88 | 1012.9 |
| 20260905074248 | 23 | 107 | 3.2 | 3.2 | 0.00 | 0.00 | 0.00 | 88 | 1012.7 |
| 20260905073743 | 23 | 108 | 3.2 | 3.2 | 0.00 | 0.00 | 0.00 | 89 | 1012.9 |
| 20260905073239 | 23 | 107 | 3.2 | 3.2 | 0.00 | 0.00 | 0.00 | 89 | 1013.1 |
| 20260905072738 | 23 | 106 | 1.6 | 3.2 | 0.00 | 0.00 | 0.00 | 88 | 1012.7 |
| 20260905072234 | 23 | 107 | 3.2 | 3.2 | 0.00 | 0.00 | 0.00 | 88 | 1012.8 |
| 20260905071730 | 23 | 107 | 3.2 | 3.2 | 0.00 | 0.00 | 0.00 | 88 | 1013.2 |
| 20260905071226 | 24 | 107 | 3.2 | 3.2 | 0.00 | 0.00 | 0.00 | 87 | 1013.0 |
| 20260905070721 | 24 | 108 | 3.2 | 3.2 | 0.00 | 0.00 | 0.00 | 87 | 1013.0 |
| 20260905070217 | 24 | 107 | 1.6 | 3.2 | 0.00 | 0.00 | 0.00 | 87 | 1012.9 |